Location: Newark
(49.8348°N, 24.0280°E)
Time: 23:19:22
(UTC+00:00)

Tiros 1 despin weight - Visible Passes

Search period start: 18 January 2020 00:00
Search period end: 28 January 2020 00:00
Orbit: 593 x 643 km, 48.2° (Epoch: 18 January)

Date Brightness Start Highest point End Pass type
(mag) Time Alt. Az. Time Alt. Az. Time Alt. Az.
18 Jan ? 16:14:28 10° W 16:19:05 62° SSW 16:23:07 14° ESE visible
18 Jan ? 17:56:14 10° W 18:00:12 27° SSW 18:00:12 27° SSW visible
19 Jan ? 16:31:02 10° W 16:35:31 48° SSW 16:39:24 14° SE visible
19 Jan ? 18:13:18 10° W 18:16:24 17° SW 18:16:30 17° SW visible
20 Jan ? 16:47:40 10° W 16:51:54 34° SSW 16:55:53 11° SE visible
21 Jan ? 17:04:30 10° W 17:08:10 23° SW 17:11:50 10° SSE visible
22 Jan ? 15:39:10 10° W 15:43:34 42° SSW 15:47:59 10° SE visible
22 Jan ? 17:21:54 10° WSW 17:24:19 14° SW 17:26:45 10° S visible
23 Jan ? 15:55:52 10° W 15:59:54 29° SSW 16:03:56 10° SSE visible
24 Jan ? 16:12:52 10° W 16:16:07 19° SW 16:19:22 10° S visible
25 Jan ? 16:31:00 10° WSW 16:32:13 11° SW 16:33:26 10° SSW visible
